Location: Newark
(13.6797°N, 8.5297°E)
Time: 19:19:49
(UTC+00:00)

Vanguard 2 - All Passes

Search period start: 26 January 2020 00:00
Search period end: 05 February 2020 00:00
Orbit: 553 x 2938 km, 32.9° (Epoch: 25 January)

Date Brightness Start Highest point End Pass type
(mag) Time Alt. Az. Time Alt. Az. Time Alt. Az.
26 Jan - 05:13:16 10° SSW 05:28:23 35° SE 05:42:15 10° E visible
26 Jan - 07:23:26 10° SW 07:41:28 80° SE 07:54:36 10° ENE daylight
26 Jan - 09:38:35 10° W 09:53:35 48° NNW 10:03:21 10° NE daylight
26 Jan - 11:57:25 10° WNW 12:05:25 22° NNW 12:11:07 10° NNE daylight
26 Jan - 14:12:44 10° NNW 14:17:01 17° N 14:20:24 10° NE daylight
26 Jan - 16:22:10 10° NW 16:26:53 49° NNE 16:30:43 10° ESE daylight
26 Jan - 18:32:34 10° WSW 18:34:57 15° SSW 18:37:25 10° S visible
27 Jan - 03:25:15 10° S 03:33:08 15° SE 03:41:20 10° ESE visible
27 Jan - 05:30:20 10° SSW 05:46:43 45° SE 06:01:25 10° ENE visible
27 Jan - 07:41:36 10° WSW 07:59:40 84° NNW 08:12:38 10° NE daylight
27 Jan - 09:58:00 10° W 10:11:56 39° NNW 10:21:09 10° NE daylight
27 Jan - 12:16:53 10° NW 12:24:06 20° N 12:29:20 10° NE daylight
27 Jan - 14:30:35 10° NW 14:35:34 21° NNE 14:39:19 10° ENE daylight
27 Jan - 16:40:04 10° WNW 16:44:50 87° SW 16:48:46 10° ESE daylight
28 Jan - 03:40:35 10° S 03:51:45 21° SE 04:03:29 10° E visible
28 Jan - 05:47:41 10° SW 06:04:57 58° SE 06:20:08 10° ENE daylight
28 Jan - 08:00:07 10° WSW 08:17:54 70° NNW 08:30:34 10° NE daylight
28 Jan - 10:17:39 10° W 10:30:25 33° NNW 10:39:03 10° NE daylight
28 Jan - 12:35:58 10° NW 12:42:50 20° N 12:47:50 10° NE daylight
28 Jan - 14:48:22 10° NW 14:54:00 29° NNE 14:58:03 10° E daylight
28 Jan - 16:58:17 10° WNW 17:02:40 43° SW 17:06:25 10° SE daylight
29 Jan - 03:56:52 10° SSW 04:10:08 29° SE 04:24:03 10° E visible
29 Jan - 06:05:20 10° SW 06:23:09 72° SE 06:38:31 10° ENE daylight
29 Jan - 08:18:58 10° WSW 08:36:11 57° NNW 08:48:27 10° NE daylight
29 Jan - 10:37:23 10° WNW 10:49:04 29° NNW 10:57:05 10° NE daylight
29 Jan - 12:54:38 10° NW 13:01:34 22° N 13:06:32 10° NE daylight
29 Jan - 15:06:10 10° NW 15:12:17 43° NNE 15:16:31 10° E daylight
29 Jan - 17:16:58 10° W 17:20:26 22° SW 17:23:31 10° SSE daylight
30 Jan - 04:13:40 10° SSW 04:28:20 39° SE 04:43:43 10° E visible
30 Jan - 06:23:16 10° SW 06:41:21 87° SE 06:56:43 10° ENE daylight
30 Jan - 08:38:08 10° W 08:54:36 48° NNW 09:06:21 10° NE daylight
30 Jan - 10:57:02 10° WNW 11:07:50 27° N 11:15:20 10° NE daylight
30 Jan - 13:12:57 10° NW 13:20:15 25° N 13:25:17 10° ENE daylight
30 Jan - 15:24:05 10° NW 15:30:23 72° NNE 15:34:41 10° ESE daylight
30 Jan - 17:37:07 10° SW 17:38:10 11° SW 17:39:12 10° SSW daylight
31 Jan - 02:26:08 10° S 02:33:55 16° SE 02:42:35 10° ESE visible
31 Jan - 04:30:47 10° SSW 04:46:27 50° SE 05:02:48 10° ENE visible
31 Jan - 06:41:31 10° WSW 06:59:37 79° NNW 07:14:47 10° NE daylight
31 Jan - 08:57:34 10° W 09:13:10 41° NNW 09:24:19 10° NE daylight
31 Jan - 11:16:26 10° WNW 11:26:41 26° N 11:33:46 10° NE daylight
31 Jan - 13:31:02 10° NW 13:38:51 31° NNE 13:43:59 10° ENE daylight
31 Jan - 15:42:13 10° WNW 15:48:17 66° SW 15:52:30 10° SE daylight
01 Feb - 02:41:38 10° S 02:52:12 23° SE 03:04:23 10° E visible
01 Feb - 04:48:13 10° SW 05:04:33 63° SE 05:21:29 10° ENE visible
01 Feb - 07:00:04 10° WSW 07:17:58 66° NNW 07:32:46 10° NE daylight
01 Feb - 09:17:12 10° WNW 09:31:54 36° NNW 09:42:25 10° NE daylight
01 Feb - 11:35:30 10° NW 11:45:33 27° N 11:52:23 10° NE daylight
01 Feb - 13:49:03 10° NW 13:57:17 42° NNE 14:02:28 10° E daylight
01 Feb - 16:00:40 10° WNW 16:06:00 35° SW 16:09:56 10° SSE daylight
02 Feb - 02:58:02 10° SSW 03:10:16 31° SE 03:24:47 10° E visible
02 Feb - 05:05:56 10° SW 05:22:41 78° SE 05:39:52 10° ENE visible
02 Feb - 07:18:57 10° W 07:36:26 56° NNW 07:50:45 10° NE daylight
02 Feb - 09:36:52 10° WNW 09:50:46 33° NNW 10:00:41 10° NE daylight
02 Feb - 11:54:12 10° NW 12:04:22 29° N 12:11:06 10° ENE daylight
02 Feb - 14:07:04 10° NW 14:15:32 61° NNE 14:20:43 10° ESE daylight
02 Feb - 16:19:41 10° W 16:23:36 19° SW 16:26:47 10° S daylight
03 Feb - 03:14:53 10° SSW 03:28:14 42° SE 03:44:20 10° ENE visible
03 Feb - 05:23:55 10° WSW 05:40:54 88° NNW 05:58:05 10° ENE visible
03 Feb - 07:38:05 10° W 07:55:05 48° NNW 08:08:48 10° NE daylight
03 Feb - 09:56:26 10° WNW 10:09:45 31° N 10:19:08 10° NE daylight
03 Feb - 12:12:38 10° NW 12:23:06 35° NNE 12:29:46 10° ENE daylight
03 Feb - 14:25:11 10° WNW 14:33:35 88° SW 14:38:42 10° ESE daylight
04 Feb - 01:27:58 10° SSE 01:34:52 16° SE 01:42:57 10° ESE visible
04 Feb - 03:32:06 10° SW 03:46:10 54° SE 04:03:21 10° ENE visible
04 Feb - 05:42:12 10° WSW 05:59:14 74° NNW 06:16:11 10° NE daylight
04 Feb - 07:57:29 10° W 08:13:53 42° NNW 08:26:58 10° NE daylight
04 Feb - 10:15:44 10° WNW 10:28:45 31° N 10:37:45 10° ENE daylight
04 Feb - 12:30:52 10° NW 12:41:42 43° NNE 12:48:20 10° E daylight
04 Feb - 14:43:32 10° WNW 14:51:25 55° SW 14:56:21 10° SE daylight
